[Date Prev][Date Next][Thread Prev][Thread Next][Date Index][Thread Index]

[jamsat-news:1608] jas2info #248



========================   最新情報   ==============================

        Last updated :27OCT2001  12:00(JST)   #248

==================================================================
   
  1)アマチュア通信衛星情報、FOシリーズの軌道要素、テレメトリ、QSOの
   状況等をまとめてみました.
   
   FO−29の2001年10月27日(土)の9:03(JST)のパスでは
  JARLのホームページのとうりアナログ運用でした。 今日までの観測した
  テレメトリーと最終の分析結果を報告しておきます。

AS25647C1     27OCT2001
9:03-9:12(JST)
FREQ. 435.801-.789MHz

                              09 1D 56 AE 64 63 9C 98 B0 75 93 92 90 8F 8F 
HI HI AE C7 88 55 00 D4 BC 58 09 1D 59 A0 65 63 9C 98 B0 54 93 92 90 8F 8F 
HI HI AE C7 88 55 00 D4 BC 58 09 1D 5C A8 68 63 9C 98 B0 59 93 92 90 8F 8F 
HI HI AE C7 88 55 00 D4 BC 58 09 1D 5F AF 6E 63 9D 98 B0 7B 93 92 90 8F 8F 
HI HI AE C7 88 55 00 D4 BC 58 09 1D 64 B4 70 63 9C 98 B0 64 93 92 90 8F 8F 
HI HI AE C7 88 55 00 D4 BC 58 09 1D          63 9D 98 B0 6B B7 6F 90 8F 8F 
HI HI AE C7 88 55 00 D4 BC 58 09 1D 72 B7 6F 63 9D 98 B0 74 93 91 8F 8F 8F 
HI HI AE C7 88 55 00 D4 BC 58 09 1D 7A B5 71 63 9D 98 B0 90 93 91 8F 8F 8F 
HI HI AE C7 88 55 00 D4 BC 58 09 1D 83 B0 72 63 9D 98 B0 6E 93 91 8F 8F 8F 
HI HI AE C7 88 55 00 D4 BC 58 09 1D 8A A8 6F 63 9D 98 B0 92 93 91 8F 8F 8F 
HI HI AE C7 88 55 00 D4 BC 58 09 1D 91 9E 6C 63 9D 98 B0 60 93 91 8F 8F 8E 
HI HI AE C7 88 55 00 D4 BC 58 09 1D 97 92 6D 63 9D 98 B0 73 93 91 8F 8F 8F 
HI HI AE C7 88 55 00 D4 BC 58 09 1D 9B 84 6E 63 9D 98 B0 69 93 91 8F 8F 8F 

AS25639C  26OCT2001
17:40-17:46(JST)
FREQ. 435.797-.792MHz
                                                         91 8C 8A 92 92 8D 
HI HI AE 07 88 55 00 D4 5A 37 09 0F 43 4A 90 79 89 88 94 73 8D 8A 92 92 8D 
HI HI AE 07 88 55 00 D4 5A 37 09 0F 43 4D 95 82 89 88 94 7E 8D 8A 92 92 8D 
HI HI AE 07 88 55 00 D4 5A 37 09 0F 43 4F 02 87 89 87 94 70 8D 8B 92 93 8D 
HI HI AE 07 88 55 00 D4 5A 37 09 0F 44 51 0F 7F 89 88 94 74 8D 8B 92 93 8D 
HI HI AE 07 88 55 00 D4 5A 37 09 0F 45 54 3F 67 8B 89 96 61 8D 8B 93 93 8D 
HI HI AE 07 88 55 00 D4 5A 37 09 0F 47 55 45 5D 8D 8B 97 70 8E 8C 93 93 8D 
HI HI AE 07 88 55 00 D4 5A 37 09 0F 49 55 57 5B 8D 8B 98 8B 8E 8C 93 93 8D 
HI HI AE 07 88 55 00 D4 5A 37 09 0F 4B 54 5A 59 8E 8C 99 82 8E 8C 93 93 8D

AS25626C  25OCT2001
18:32-18:46(JST)
FREQ. 435.802-.788MHz
                                          02 86 8D 8B 91 72 8E 8E 94 90 8F 
HI HI AE C7 88 55 00 D4 05 AC 09 6F 55 49 00 89 8B 8A 8F 82 8E 8E 94 90 8F 
HI HI AE 07 88 55 00 D4 05 AC 09 6F 59 45 00 87 8A 89 95 6E 8E 8F 94 8F 8F 
HI HI AE 07 88 55 00 D4 05 AC 09 6F 5D 42 00 89 8A 89 95 7A 8E 8F 94 90 8F 
HI HI AE 07 88 55 00 D4 05 AC 09 6F 5F 3E 00 89 8A 89 95 79 8E 8F 94 90 8F 
HI HI AE 07 88 55 00 D4 05 AC 09 6F 63 3C 00 87 8A 89 94 76 8E 8F 94 90 8E 
HI HI AE 07 88 55 00 D4 05 AC 09 6F 66 3B 00 88 89 89 94 6F 8E 8F 94 90 8F 
HI HI AE 07 88 55 00 D4 05 AC 09 6F 69 39 00 88 89 8  94 7D 8F 8F 94 90 8E 
HI HI AE 07 88 55 00 D4 05 AC 09 6F 6C 39 01 86 89 88 94 77 8F 90 94 90 8E 
HI HI AE 07 88 55 00 D4 05 AC 09 6F 6F 3A 0C 81 89 88 94 89 8F 90 94 90 8E 
HI HI AE 07 88 55 00 D4 05 AC 09 6F 72 3B 3C 68 8B 89 96 61 8F 90 94 90 8E
HI HI AE 07 88 55 00 D4 05 AC 09 6F 74 3D 58 5B 8D 8B 98 82 8F 90 94 90 8E 
HI HI AE 07 88 55 00 D4 05 IC 09 6F 77 3F 57 5E 8E 8C 98 75 90 91 94 90 8E 
HI HI AE 07 88 55 00 D4 05 AC 09 6F 7A 41 5A 5A 8E 8D 9A 85 90 91 94 91 8E 
HI HI AE 07 88 55 00 D4 05 AC 09 6F 7C 43 5C 59 91 8D 9A 71 90 91 94 91 8E
HI HI AE C7 88 55 00 D4 05 AC 09 6F 7F 45 5E 59 91 8E 9C 65 90 91 94 91 8E 
HI HI AE 07 88 55 00 D4 05 AC 09 6F 81 47 60 5F 91 8E B0 71 91 91 94 91 8E 
HI HI AE C7 88 55 00 D4 05 AC 09 6F 84 4A 60 5F 91 8F B0 8E 91 91 94 91 8E 
HI HI AE C7 88 55 00 D4 05 AC 09 6F 86 4C 61 5F 91 8F B0 6A 91 91 94 92 8E 
HI HI AE C7 88 55 00 D4 05 AC 09 6F 89 4F 62 5F 91 8F B0 79 91 91 94 92 8E 
HI HI AE C7 88 55 00 D4 05 AC 09 6

AS25613C1   24OCT2001
19:32-19:42(JST)
FREQ. 435.796-.786MHz

                                                      88 78 94 89 87 92 8C 
HI HI AE 07 88 55 00 D4 00 00 09 00 3A 5B 01   89 88 94 78 94 8A 87 92 8C 
HI HI AE 07 88 55 00 D4 00 00 09 00 37 50     8A 88 94 78 94 8A 88 92 8C 
HI HI AE 07 88 55 00 D4 00 00 09 00 3E 51 26 74 8A 89 95 85 94 8A 88 92 8C 
HI HI AE 07 88 55 00 D4 00 00 09 00 44 54 6B 52 8E 8C 99 A5 94 8A 88 92 8C 
HI HI AE 07 88 55 00 D4 00 00 09 00 4A 57 71 51 92 8D 9B 76 94 8B 89 92 8C 
HI HI AE 07 88 55 00 D4 00 00 09 00 52 5E 71 50 92 8F 9D 60 95 8B 89 93 8C 
HI HI AE C7 88 55 00 D4 00 00 09 00 5A 65 65 5F 91 8E B0 80 AI 8B 89 93 8C 
HI HI AE C7 88 55 00 D4 00 00 09 00 62 6F 6E 5F 91 8F B0 82 95 8C 89 93 8C 
HI HI AE C7 88 55 00 D4 00 00 09 00 6B 79 6D 5F 91 8F B0 6E 95 8C 8A 93 8C 
HI HI AE C7 88 55 00 D4 00 00 99 00 72 83 6C 5F 91 8F B0 72 95 8C 8A 93 8C 
HI HI AE C7 88 55 00 D4 00 00 09 00 78 8B 6C 5F 91 8F B0 54 95 8C 8A 93 8C 
HI HI AE C7 88 55 00 D4 00 00 09 00 75 92 6B 5F 91 8F B0 7B 95 8C 8A 93 8C 
HI HI AE C7 88 55 00 D4

AS25599C1  23OCT2001
18:43-18:51(JST)
FREQ. 435.794-.788MHz

HI HI AE 07 88 55 00 D5 8A 22 09 56 97 76 55 4F 8D 8A 97 60 8E 8C 94 93 8D 
HI HI AE 07 88 55 00 D4 8A 22 09 56 94 70 70 4F 8F 8C 9A 8C 8E 8C 94 93 8D 
HI HI AE 07 88 55 00 D4 8A 22 09 56 91 6A 71 4F 91 8E 9C 6D 8E 8C 94 93 8D 
HI HI AE 07 88 55 00 D4 8A 22 09 56 8B 63 71 5F 91 8E B0 81 8E 8C 94 93 8D 
HI HI AE C7 88 55 00 D4 8A 22 09 56 85 5E 71 5F 91 8E B0 73 8E 8C 94 93 8D 
HI HI AE C7 88 55 00 D4 8A 22 09 56 7D 5B 6F 5F 91 8F B0 82 8F 8C 94 94 8D 
HI HI AE C7 88 55 00 D4 8A 22 09 56 76 59 6C 5F 91 8F B0 88 8F 8C 95 94 8D 
HI HI AE C7 88 55 00 D4 8A 22 09 56 6E 59 65 00 91 8F B0 75 8F 8C 95 94 8D 
HI HI AE C7 88 55 00 D4 8A 22 09 56 66 5B 62 5F 91 8F B0 74 8F 8D 95 94 8D 
HI HI AE C7 88 55 00 D4 8A 22 09 56 60 5E 5D 5F 91 8F B0 83 8F 8D 95 94 8D 
HI HI AE C7 88 55 00 D4 8A 22 09 56  

AS25586C1   22OCT2001
19:31-19:47(JST)
FREQ. 435.803-.787MHz

HI HI AE C7 88 55 00 D4 D1 04 09 36 51 B1 1E 7A 96 92 98 6D 91 90 8F 8F 8F 
HI HI AE C7 88 55 00 D4 D1 04 09 36 60 B1 06 85 8F 8D 92 7F 92 90 8F 8F 8F 
HI HI AE C7 88 55 00 D4 D1 04 09 36 6E AD 01 86 8C 8B 90 6F 92 90 8F 8F 8F 
HI HI AE C7 88 55 00 D4 D1 04 09 36 7A A5 01 86 8B 8A 8F 82 92 90 8F 8F 8F 
HI HI AE 07 88 55 00 D4 D1 04 09 36 85 9C 01 88 8A 89 95 6D 92 91 8F 8F 8F 
HI HI AE 07 88 55 00 D4 D1 04 09 36 8C 8E 00 8A 8A 89 95 85 92 91 8F 8F 8F 
HI HI AE 07 88 55 00 D4 D1 04 09 36 90 7F 00 88 8A 89 95 66 92 91 8F 8F 8F 
HI HI AE 07 88 55 00 D4 D1 04 09 36 91 78 00 88 89 89 94 75 92 91 8F 8F 8F 
HI HI AE 07 88 55 00 D4 D1 04 09 36 8E 62 01 87 89 88 94 82 92 91 8F 90 8F 
HI HI AE 07 88 55 00 D4 D1 04 09 36 88 56 0A 82 89 88 94 77 92 91 8F 90 8F 
HI HI AE 07 88 55 00 D4 D1 04 09 36 81 52    71 8B 8A 86 74 92 91 90 90 8F 
HI HI AE 07 88 55 00 D4 D1 04 09 36 76 49 00 4E 8F 8C 99 69 93 91 90 90 8F 
HI HI AE 07 88 55 00 D4 D1 04 09 36 6A 47 76 50 91 8E 9B 88 93 92 90 90 8F 
HI HI AE 07 88 55 00 D4 D1 7V 09 36 5F 4A 75 5F 91 8F B0 5D 93 92 91 90 8F 
HI HI AE C7 88 55 00 D4 D1 04 09 36 56 4C 74 5F 91 8E B0 82 93 92 91 90 8F
HI HI AE C7 88 55 00 D4 D1 04 09 36 4E 54 71 5F 91 8F B0 6D 93 92 91 90 8F 
HI HI AE C7 88 55 00 D4 D1 04 09 36 48 5E 70 5F 91 8F B0 85 93 92 91 90 8F 
HI HI AE C7 88 55 00 D4 D1 04 09 36 45 6A 6A 5F 91 8F B0 53 93 93 91 90 8F 
HI HI AE C7 88 55 00 D4 D1 04 09 36 45 77 68 5F 91  F B  68 93 93 91 90 8F 
HI HI AE C7 88 55 00 D4 D1 04 09 36 49 83 63 5F 92 8F B0 66 94 93 92 90 8F 
HI HI AE C7 88 55 00 D4 D1 04 09 36 4E 8E 60 60 92 90 B0 7D 93 93 92 90 8F 
HI HI AE C7 88 55 00 D4 D1 04 09 36 56 97 5B 60 92 8F B0 7E  

AS25585C1   22OCT2001
17:51-17:56(JST)
FREQ.  435.794-.791MHz
                                                8A 88 98 88 92 8F 91 91 8F 
HI HI AE 07 88 55 00 D4 BA 86 09 1C 54 85 31 6E 8B 89 96 87 93 90 91 92 8F 
HI HI AE 07 88 55 00 D4 BA 86 09 1C 50 79 59 59 8D 89 98 88 93 90 91 92 8F 
HI HI AE 07 88 55 00 D4 BA 86 09 1C 4C 73 63 56 8F 89 98 88 93 90 91 92 8F  
HI HI AE 07 88 55 00 D4 BA 86 09 1C 48 6C 6B 52 90 8E 98 88 93 90 91 92 8F 
  
------------------------ FO-29の軌道要素 ------------------------------        
 
  ■ 軌道要素1:「jamsat−keps:1045」より         
          SB KEPS @ AMSAT  $ORB01298.N
          2Line Orbital Elements 01298.AMSAT

HR AMSAT ORBITAL ELEMENTS FOR AMATEUR SATELLITES IN NASA FORMAT
FROM WA5QGD FORT WORTH,TX October 25, 2001
SEND SUBSCRIBE/UNSUBSCRIBE TO majordomo@amsat.org ONLY
BID: ORB01298.N

 DECODE 2-LINE ELSETS WITH THE FOLLOWING KEY:
 1 AAAAAU 00  0  0 BBBBB.BBBBBBBB  .CCCCCCCC  00000-0  00000-0 0  DDDZ
 2 AAAAA EEE.EEEE FFF.FFFF GGGGGGG HHH.HHHH III.IIII JJ.JJJJJJJJKKKKKZ
 KEY: A-CATALOGNUM B-EPOCHTIME C-DECAY D-ELSETNUM E-INCLINATION F-RAAN
 G-ECCENTRICITY H-ARGPERIGEE I-MNANOM J-MNMOTION K-ORBITNUM Z-CHECKSUM

FO-29
1 24278U 96046B   01297.63226784  .00000121  00000-0  15868-3 0 04670
2 24278 098.5244 145.1715 0351488 026.4188 335.4405 13.52789748256145

 ■ 軌道要素2:「jamsat−keps:1046」より
        SB KEPS @ AMSAT  $ORB01298.O
        Orbital Elements  01298.OSCAR

HR AMSAT ORBITAL ELEMENTS FOR OSCAR SATELLITES
FROM WA5QGD FORT WORTH,TX October 25, 2001
SEND SUBSCRIBE/UNSUBSCRIBE TO majordomo@amsat.org ONLY
BID: ORB01298.O
TO ALL RADIO AMATEURS BT

Satellite: FO-29
Catalog number: 24278
Epoch time:      01297.63226784
Element set:    0467
Inclination:      098.5244 deg
RA of node:       145.1715 deg
Eccentricity:    0.0351488
Arg of perigee:   026.4188 deg
Mean anomaly:     335.4405 deg
Mean motion:   13.52789748 rev/day
Decay rate:       1.21e-06 rev/day^2
Epoch rev:           25614
Checksum:              332

-------------------  FO-29(JAS-2)のテレメトリに関する情報  ---------------------- 
 
2)上記10月27日(土)のテレメトリの最終行を分析しておきます.

AS25647C1     27OCT2001
9:03-9:12(JST)
FREQ. 435.801-.789MHz

HI HI AE C7 88 55 00 D4 BC 58 09 1D 9B 84 6E 63 9D 98 B0 69 93 91 8F 8F 8F 

